Location: Aciu?a
(46.2833°N, 22.4500°E)
Time: 13:28:48
(UTC+00:00)

Cosmos 1140 Rocket - Pass Details

Date: 25 October 2021
Orbit: 743 x 768 km, 74.1° (Epoch: 06 December)

Event Time Altitude Azimuth Distance (km) Brightness Sun altitude
Rises 17:32:38 0° 339° (NNW) 3,219 7.1 -22.4°
Reaches altitude 10° 17:35:00 10° 340° (NNW) 2,294 6.3 -22.8°
Maximum altitude 17:40:14 80° 68° (ENE) 779 3.3 -23.7°
Enters shadow 17:41:16 58° 141° (SE) 890 3.5 -23.9°
